Tracking 19193 objects as of 24-Jun-2018
HD Live streaming from Space Station
objects crossing your sky now

SCOUT A DEB

Track SCOUT A DEB now!
10-day predictions


NORAD ID: 3591
Int'l Code: 1966-041E
Perigee: 837.0 km
Apogee: 946.1 km
Inclination: 90.1 °
Period: 102.7 minutes
Semi major axis: 7262 km
RCS: 0.073 m2 (small)
Launch date: May 19, 1966
Source: United States (US)
Launch site: AIR FORCE WESTERN TEST RANGE (AFWTR)

Note: This is SATELLITE DEBRIS
aabbcc
Your satellite tracking list
Your tracking list is empty




NASA's NSSDC Master Catalog

Two Line Element Set (TLE):
1 03591U 66041E   18174.82582110  .00000106  00000-0  61021-4 0  9994
2 03591  90.1488  22.1413 0075135 341.5440  18.3017 14.02715076659109
Source of the keplerian elements: AFSPC